KC3ROS Weather Reports


time (UTC)temp
C
wind
direction
speed
KPH
gust
KPH
rain 1hr
cm
rain 24hr
cm
rain mn
cm
humidity
%
barometer
mb
20260508012849 10 11 3.2 6.4 0.00 0.00 0.00 60 1011.8
20260508012346 10 347 3.2 4.8 0.00 0.00 0.00 60 1011.9
20260508011844 10 25 3.2 8.0 0.00 0.00 0.00 59 1011.7
20260508011342 10 13 3.2 4.8 0.00 0.00 0.00 58 1011.8
20260508010839 10 5 3.2 4.8 0.00 0.00 0.00 57 1011.7
20260508010336 10 354 4.8 4.8 0.00 0.00 0.00 56 1011.3
20260508005833 10 5 3.2 6.4 0.00 0.00 0.00 55 1011.3
20260508005330 10 9 3.2 4.8 0.00 0.00 0.00 56 1011.1
20260508004826 10 33 4.8 6.4 0.00 0.00 0.00 54 1011.3
20260508004322 10 1 1.6 6.4 0.00 0.00 0.00 53 1011.1
20260508003819 11 345 3.2 6.4 0.00 0.00 0.00 52 1011.1
20260508003316 11 331 4.8 11.3 0.00 0.00 0.00 51 1011.1
20260508002813 11 2 4.8 9.7 0.00 0.00 0.00 50 1011.1
20260508002310 11 309 3.2 11.3 0.00 0.00 0.00 49 1010.8
20260508001806 11 228 3.2 9.7 0.00 0.00 0.00 49 1010.7
20260508001302 11 234 4.8 14.5 0.00 0.00 0.00 50 1010.7
20260508000758 11 321 3.2 6.4 0.00 0.00 0.00 49 1010.6
20260508000257 11 322 3.2 12.9 0.00 0.00 0.00 48 1010.4
20260507235751 12 42 1.6 6.4 0.00 0.00 0.00 49 1010.4
20260507235249 12 326 3.2 8.0 0.00 0.00 0.00 49 1010.4
20260507234746 12 315 3.2 16.1 0.00 0.00 0.00 45 1010.3
20260507234242 12 329 8.0 17.7 0.00 0.00 0.00 45 1010.4
20260507233738 12 346 6.4 12.9 0.00 0.00 0.00 45 1010.2
20260507233237 12 287 11.3 24.1 0.00 0.00 0.00 46 1010.1
20260507232734 12 60 4.8 17.7 0.00 0.00 0.00 46 1010.2
20260507232231 12 0 8.0 14.5 0.00 0.00 0.00 47 1009.9
20260507231727 12 355 3.2 14.5 0.00 0.00 0.00 46 1010.1
20260507231224 12 333 6.4 16.1 0.00 0.00 0.00 45 1010.0
20260507230721 13 343 8.0 19.3 0.00 0.00 0.00 44 1010.0
20260507230219 13 1 3.2 6.4 0.00 0.00 0.00 44 1010.1
20260507225717 13 12 1.6 9.7 0.00 0.00 0.00 43 1009.8
20260507225215 12 305 8.0 12.9 0.00 0.00 0.00 44 1009.8
20260507224710 13 324 8.0 14.5 0.00 0.00 0.00 43 1009.9
20260507224207 13 346 4.8 11.3 0.00 0.00 0.00 42 1009.7
20260507223703 13 276 6.4 14.5 0.00 0.00 0.00 42 1009.7
20260507223200 13 327 4.8 14.5 0.00 0.00 0.00 44 1009.6
20260507222657 13 266 4.8 27.4 0.00 0.00 0.00 43 1009.6
20260507222153 13 32 3.2 8.0 0.00 0.00 0.00 43 1009.6
20260507221650 13 293 4.8 12.9 0.00 0.00 0.00 44 1009.4
20260507221146 14 253 6.4 16.1 0.00 0.00 0.00 40 1009.4
20260507220643 15 339 4.8 8.0 0.00 0.00 0.00 41 1009.2
20260507220142 15 19 4.8 14.5 0.00 0.00 0.00 40 1009.0
20260507215637 13 314 4.8 8.0 0.00 0.00 0.00 40 1009.4
20260507215135 14 35 6.4 8.0 0.00 0.00 0.00 43 1009.2
20260507214632 15 0 3.2 12.9 0.00 0.00 0.00 42 1009.1
20260507214128 15 347 8.0 12.9 0.00 0.00 0.00 39 1009.1
20260507213625 15 0 3.2 6.4 0.00 0.00 0.00 41 1008.9
20260507213122 14 342 6.4 6.4 0.00 0.00 0.00 43 1008.9
20260507212618 15 32 3.2 6.4 0.00 0.00 0.00 41 1009.0
20260507212115 15 316 8.0 11.3 0.00 0.00 0.00 42 1009.0
20260507211612 13 343 4.8 8.0 0.00 0.00 0.00 45 1009.0
20260507211107 13 31 3.2 11.3 0.00 0.00 0.00 41 1009.0
20260507210605 13 226 1.6 12.9 0.00 0.00 0.00 42 1009.0
20260507205558 16 295 4.8 16.1 0.00 0.00 0.00 39 1008.7
20260507205054 15 210 1.6 11.3 0.00 0.00 0.00 45 1008.6
20260507204551 16 6 3.2 8.0 0.00 0.00 0.00 42 1008.8
20260507204048 15 216 1.6 11.3 0.00 0.00 0.00 39 1009.0
20260507203546 15 196 8.0 16.1 0.00 0.00 0.00 38 1008.9
20260507203043 14 244 1.6 6.4 0.00 0.00 0.00 44 1008.6
20260507202539 14 37 3.2 6.4 0.00 0.00 0.00 41 1008.8
20260507202035 15 300 4.8 11.3 0.00 0.00 0.00 40 1008.9
20260507201531 16 334 6.4 17.7 0.00 0.00 0.00 39 1008.8
20260507201027 13 353 1.6 6.4 0.00 0.00 0.00 40 1008.9
20260507200523 15 262 14.5 19.3 0.00 0.00 0.00 39 1009.1
20260507200019 15 251 6.4 11.3 0.00 0.00 0.00 39 1009.1
20260507195517 15 316 6.4 16.1 0.00 0.00 0.00 40 1008.9
20260507195014 15 201 4.8 11.3 0.00 0.00 0.00 40 1009.1
20260507194510 15 350 6.4 16.1 0.00 0.00 0.00 39 1009.1
20260507194007 15 32 6.4 8.0 0.00 0.00 0.00 38 1009.1
20260507193504 15 273 4.8 14.5 0.00 0.00 0.00 39 1009.3
20260507193000 15 324 4.8 11.3 0.00 0.00 0.00 41 1009.3
20260507192456 15 3 6.4 11.3 0.00 0.00 0.00 40 1009.2
20260507191954 13 169 4.8 8.0 0.00 0.00 0.00 41 1009.2
20260507191449 14 294 11.3 19.3 0.00 0.00 0.00 41 1009.4
20260507190946 15 173 3.2 6.4 0.00 0.00 0.00 42 1009.1
20260507190444 15 263 9.7 14.5 0.00 0.00 0.00 40 1009.1
20260507185942 15 30 1.6 14.5 0.00 0.00 0.00 45 1009.0
20260507185439 14 329 6.4 20.9 0.00 0.00 0.00 40 1009.1
20260507184936 16 200 8.0 12.9 0.00 0.00 0.00 40 1009.3
20260507184434 15 201 0.0 16.1 0.00 0.00 0.00 42 1009.3
20260507183932 14 32 3.2 6.4 0.00 0.00 0.00 44 1009.5
20260507183428 15 303 4.8 11.3 0.00 0.00 0.00 46 1009.3
20260507182926 15 14 3.2 11.3 0.00 0.00 0.00 46 1009.4
20260507182421 13 254 3.2 11.3 0.00 0.00 0.00 46 1009.4
20260507181918 13 60 0.0 14.5 0.00 0.00 0.00 46 1009.4
20260507181414 13 355 4.8 9.7 0.00 0.00 0.00 49 1009.5
20260507180911 13 255 3.2 16.1 0.00 0.00 0.00 44 1009.6
20260507180407 15 163 3.2 8.0 0.00 0.00 0.00 42 1009.6
20260507175903 14 215 6.4 16.1 0.00 0.00 0.00 47 1009.5
20260507175400 15 224 9.7 22.5 0.00 0.00 0.00 45 1009.5
20260507174858 14 276 4.8 17.7 0.00 0.00 0.00 43 1009.6
20260507174355 13 245 6.4 12.9 0.00 0.00 0.00 46 1009.6
20260507173853 14 39 8.0 9.7 0.00 0.00 0.00 44 1009.8
20260507173349 15 319 8.0 11.3 0.00 0.00 0.00 48 1009.7
20260507172846 14 245 4.8 8.0 0.00 0.00 0.00 48 1009.6
20260507172342 13 212 6.4 11.3 0.00 0.00 0.00 50 1009.9
20260507171838 14 260 11.3 17.7 0.00 0.00 0.00 44 1009.8
20260507171335 15 261 6.4 16.1 0.00 0.00 0.00 46 1010.0
20260507170832 14 186 6.4 16.1 0.00 0.00 0.00 48 1010.1
20260507170329 15 229 6.4 14.5 0.00 0.00 0.00 48 1010.2
20260507165825 13 64 4.8 14.5 0.00 0.00 0.00 51 1010.0
20260507165321 14 196 4.8 9.7 0.00 0.00 0.00 51 1010.1
20260507164817 13 193 8.0 17.7 0.00 0.00 0.00 47 1010.3
20260507164314 13 219 9.7 19.3 0.00 0.00 0.00 50 1010.3
20260507163811 14 260 4.8 17.7 0.00 0.00 0.00 54 1010.1
20260507163309 13 232 8.0 14.5 0.00 0.00 0.00 53 1010.2
20260507162805 12 30 0.0 4.8 0.00 0.00 0.00 55 1010.4
20260507162301 12 357 3.2 9.7 0.00 0.00 0.00 54 1010.4
20260507161758 12 11 0.0 4.8 0.00 0.00 0.00 53 1010.3
20260507161254 13 31 3.2 8.0 0.00 0.00 0.00 52 1010.4
20260507160750 13 261 8.0 8.0 0.00 0.00 0.00 53 1010.3
20260507160247 12 283 3.2 8.0 0.00 0.00 0.00 56 1010.4
20260507155743 13 185 6.4 12.9 0.00 0.00 0.00 48 1010.5
20260507155239 13 260 3.2 11.3 0.00 0.00 0.00 49 1010.7
20260507154736 13 219 12.9 17.7 0.00 0.00 0.00 46 1010.6
20260507154234 13 268 3.2 6.4 0.00 0.00 0.00 54 1010.6
20260507153730 12 292 0.0 19.3 0.00 0.00 0.00 55 1010.6
20260507153226 11 17 3.2 6.4 0.00 0.00 0.00 59 1010.7
20260507152723 11 313 3.2 4.8 0.00 0.00 0.00 58 1010.9
20260507152219 12 351 4.8 9.7 0.00 0.00 0.00 54 1010.6
20260507151715 12 244 6.4 16.1 0.00 0.00 0.00 53 1010.9
20260507151212 12 76 8.0 8.0 0.00 0.00 0.00 57 1010.9
20260507150709 12 153 0.0 6.4 0.00 0.00 0.00 51 1011.0
20260507150206 12 243 0.0 6.4 0.00 0.00 0.00 59 1011.1
20260507145701 11 306 0.0 6.4 0.00 0.00 0.00 53 1011.1
20260507145158 11 307 4.8 11.3 0.00 0.00 0.00 55 1011.4
20260507144655 11 257 3.2 8.0 0.00 0.00 0.00 59 1011.4
20260507144153 11 232 4.8 19.3 0.00 0.00 0.00 53 1011.4
20260507143650 12 84 3.2 6.4 0.00 0.00 0.00 58 1011.4
20260507143147 12 200 9.7 12.9 0.00 0.00 0.00 56 1011.6
20260507142642 11 176 1.6 9.7 0.00 0.00 0.00 60 1011.6
20260507142139 11 236 6.4 14.5 0.00 0.00 0.00 63 1011.7
20260507141635 11 209 4.8 12.9 0.00 0.00 0.00 64 1011.7
20260507141132 11 297 8.0 12.9 0.00 0.00 0.00 63 1011.8
20260507140629 11 185 3.2 11.3 0.00 0.00 0.00 64 1011.9
20260507140126 10 258 6.4 8.0 0.00 0.00 0.00 66 1012.0
20260507135623 10 216 6.4 12.9 0.00 0.00 0.00 65 1012.0
20260507135121 10 311 6.4 14.5 0.00 0.00 0.00 67 1012.2
20260507134617 10 210 4.8 9.7 0.00 0.00 0.00 68 1012.1
20260507134113 10 250 1.6 9.7 0.00 0.00 0.00 68 1012.0
20260507133609 10 226 8.0 11.3 0.00 0.00 0.00 69 1012.3
20260507133107 10 206 6.4 12.9 0.00 0.00 0.00 67 1011.9
20260507132603 10 142 0.0 14.5 0.00 0.00 0.00 67 1012.0
20260507132100 9 245 4.8 8.0 0.00 0.00 0.00 70 1012.0
20260507131557 10 222 4.8 6.4 0.00 0.00 0.00 71 1012.1
20260507131054 9 197 3.2 4.8 0.00 0.00 0.00 74 1012.2
20260507130551 8 185 1.6 11.3 0.00 0.00 0.00 75 1012.2
20260507130049 8 203 1.6 4.8 0.00 0.00 0.00 77 1012.2
20260507125547 8 215 3.2 8.0 0.00 0.00 0.00 76 1012.1
20260507125044 8 173 1.6 4.8 0.00 0.00 0.00 77 1012.2
20260507124540 8 208 4.8 6.4 0.00 0.00 0.00 78 1012.2
20260507124038 7 51 4.8 4.8 0.00 0.00 0.00 82 1012.2
20260507123536 7 206 3.2 8.0 0.00 0.00 0.00 81 1012.2
20260507123033 7 211 3.2 6.4 0.00 0.00 0.00 82 1012.1
20260507122528 7 217 4.8 8.0 0.00 0.00 0.00 85 1012.1
20260507122024 6 214 0.0 4.8 0.00 0.00 0.00 85 1012.3
20260507121520 6 248 0.0 6.4 0.00 0.00 0.00 86 1012.1
20260507121016 6 185 1.6 3.2 0.00 0.00 0.00 87 1012.0
20260507120512 5 175 0.0 4.8 0.00 0.00 0.00 88 1012.0
20260507120010 5 210 1.6 4.8 0.00 0.00 0.00 89 1012.1
20260507115505 5 169 0.0 3.2 0.00 0.00 0.00 92 1012.2
20260507115001 5 249 0.0 3.2 0.00 0.00 0.00 94 1012.2
20260507114458 5 187 0.0 4.8 0.00 0.00 0.00 95 1012.1
20260507113955 5 196 1.6 3.2 0.00 0.00 0.00 95 1012.1
20260507113452 4 186 0.0 4.8 0.00 0.00 0.00 97 1012.2
20260507112949 4 192 0.0 3.2 0.00 0.00 0.00 97 1012.1
20260507112447 3 193 0.0 3.2 0.00 0.00 0.00 98 1011.8
20260507111943 3 186 0.0 1.6 0.00 0.00 0.00 97 1011.9
20260507111441 3 147 0.0 3.2 0.00 0.00 0.00 97 1012.0
20260507110937 3 97 0.0 3.2 0.00 0.00 0.00 97 1011.9
20260507110433 3 143 0.0 3.2 0.00 0.00 0.00 97 1011.9
20260507105930 3 180 0.0 1.6 0.00 0.00 0.00 98 1011.8
20260507105427 3 120 1.6 3.2 0.00 0.00 0.00 97 1011.7
20260507104923 3 136 1.6 3.2 0.00 0.00 0.00 97 1011.8
20260507104421 3 150 0.0 3.2 0.00 0.00 0.00 97 1011.7
20260507103916 3 232 0.0 3.2 0.00 0.00 0.00 97 1011.6
20260507103413 3 162 0.0 3.2 0.00 0.00 0.00 97 1011.5
20260507102909 3 184 0.0 3.2 0.00 0.00 0.00 97 1011.6
20260507102406 3 179 0.0 3.2 0.00 0.00 0.00 97 1011.5
20260507101902 3 112 0.0 4.8 0.00 0.00 0.00 97 1011.5
20260507101357 3 111 0.0 3.2 0.00 0.00 0.00 97 1011.7
20260507100854 3 124 0.0 3.2 0.00 0.00 0.00 97 1011.5
20260507100352 3 73 0.0 3.2 0.00 0.00 0.00 96 1011.5
20260507095850 3 148 0.0 1.6 0.00 0.00 0.00 96 1011.5
20260507095346 3 89 0.0 3.2 0.00 0.00 0.00 96 1011.6
20260507094844 3 105 0.0 3.2 0.00 0.00 0.00 96 1011.5
20260507094339 3 110 0.0 3.2 0.00 0.00 0.00 96 1011.6
20260507093837 3 111 1.6 3.2 0.00 0.00 0.00 95 1011.6
20260507093335 3 93 1.6 3.2 0.00 0.00 0.00 94 1011.4
20260507092833 3 57 0.0 3.2 0.00 0.00 0.00 94 1011.4
20260507092329 3 95 0.0 3.2 0.00 0.00 0.00 94 1011.6
20260507091825 3 203 0.0 3.2 0.00 0.00 0.00 94 1011.7
20260507091322 3 167 0.0 3.2 0.00 0.00 0.00 93 1011.7
20260507090818 3 160 0.0 3.2 0.00 0.00 0.00 92 1011.7
20260507090314 3 50 1.6 3.2 0.00 0.00 0.00 92 1011.6
20260507085811 3 89 0.0 1.6 0.00 0.00 0.00 91 1011.6
20260507085308 4 89 0.0 3.2 0.00 0.00 0.00 91 1011.5
20260507084806 4 123 3.2 3.2 0.00 0.00 0.00 90 1011.6
20260507084301 4 97 1.6 3.2 0.00 0.00 0.00 89 1011.8
20260507083759 4 95 3.2 3.2 0.00 0.00 0.00 88 1011.6
20260507083256 5 160 0.0 3.2 0.00 0.00 0.00 87 1011.8
20260507082752 5 113 1.6 3.2 0.00 0.00 0.00 87 1011.5
20260507082248 5 117 1.6 3.2 0.00 0.00 0.00 87 1011.6
20260507081745 5 71 0.0 3.2 0.00 0.00 0.00 87 1011.8
20260507081240 4 122 0.0 3.2 0.00 0.00 0.00 88 1011.7
20260507080737 4 93 1.6 3.2 0.00 0.00 0.00 87 1011.5
20260507080234 4 125 1.6 3.2 0.00 0.00 0.00 87 1011.7
20260507075729 4 94 3.2 4.8 0.00 0.00 0.00 87 1011.8
20260507075226 4 60 0.0 1.6 0.00 0.00 0.00 87 1012.0
20260507074722 5 89 0.0 3.2 0.00 0.00 0.00 87 1011.9
20260507074220 5 66 0.0 3.2 0.00 0.00 0.00 85 1011.6
20260507073716 5 89 1.6 3.2 0.00 0.00 0.00 83 1011.9
20260507073213 5 105 1.6 3.2 0.00 0.00 0.00 83 1011.6
20260507072711 5 97 1.6 3.2 0.00 0.00 0.00 83 1011.9
20260507072208 5 124 0.0 1.6 0.00 0.00 0.00 82 1011.9
20260507071705 5 66 0.0 0.0 0.00 0.00 0.00 83 1011.9
20260507071202 6 53 0.0 1.6 0.00 0.00 0.00 81 1012.0
20260507070659 6 104 0.0 1.6 0.00 0.00 0.00 80 1011.9
20260507070156 6 130 0.0 0.0 0.00 0.00 0.00 80 1012.0
20260507065652 6 130 0.0 0.0 0.00 0.00 0.00 79 1011.9
20260507065149 6 164 0.0 1.6 0.00 0.00 0.00 79 1011.9
20260507064646 6 113 0.0 1.6 0.00 0.00 0.00 80 1012.0
20260507064145 5 147 0.0 1.6 0.00 0.00 0.00 81 1012.0
20260507063642 5 89 0.0 1.6 0.00 0.00 0.00 82 1012.1
20260507063139 5 119 0.0 0.0 0.00 0.00 0.00 82 1011.8
20260507062636 6 130 0.0 0.0 0.00 0.00 0.00 83 1011.8
20260507062133 6 89 0.0 3.2 0.00 0.00 0.00 82 1012.1
20260507061631 6 60 0.0 1.6 0.00 0.00 0.00 80 1012.2
20260507061129 6 89 0.0 1.6 0.00 0.00 0.00 79 1012.0
20260507060627 6 132 0.0 1.6 0.00 0.00 0.00 80 1012.2
20260507060123 6 124 0.0 1.6 0.00 0.00 0.00 80 1012.2
20260507055618 6 135 0.0 0.0 0.00 0.00 0.00 80 1012.2
20260507055114 6 135 0.0 1.6 0.00 0.00 0.00 81 1012.2
20260507054610 6 76 0.0 1.6 0.00 0.00 0.00 81 1012.2
20260507054108 6 104 0.0 1.6 0.00 0.00 0.00 81 1012.3
20260507053606 6 108 0.0 1.6 0.00 0.00 0.00 81 1012.3
20260507053104 7 97 0.0 3.2 0.00 0.00 0.00 81 1012.5
20260507052602 7 98 3.2 3.2 0.00 0.00 0.00 81 1012.6
20260507052058 7 77 1.6 3.2 0.00 0.00 0.00 79 1012.7
20260507051555 7 82 1.6 3.2 0.00 0.00 0.00 79 1012.8
20260507051052 7 70 1.6 3.2 0.00 0.00 0.00 78 1012.7
20260507050549 7 69 3.2 3.2 0.00 0.00 0.00 78 1012.8
20260507050046 7 67 3.2 4.8 0.00 0.00 0.00 77 1012.8
20260507045542 7 49 1.6 4.8 0.00 0.00 0.00 77 1013.0
20260507045039 7 49 3.2 3.2 0.00 0.00 0.00 77 1012.7
20260507044536 7 54 3.2 4.8 0.00 0.00 0.00 77 1012.8
20260507044033 7 36 3.2 6.4 0.00 0.00 0.00 77 1012.7
20260507043528 7 58 3.2 4.8 0.00 0.00 0.00 77 1012.7
20260507043026 7 41 3.2 4.8 0.00 0.00 0.00 77 1012.6
20260507042522 7 42 1.6 4.8 0.00 0.00 0.00 77 1012.7
20260507042018 7 48 1.6 6.4 0.00 0.00 0.00 76 1012.8
20260507041515 7 28 1.6 4.8 0.00 0.00 0.00 76 1012.7
20260507041012 7 41 3.2 4.8 0.00 0.00 0.00 75 1012.8
20260507040508 7 29 3.2 6.4 0.00 0.00 0.00 74 1012.7
20260507040004 8 33 3.2 6.4 0.00 1.32 1.32 74 1012.5
20260507035500 8 33 3.2 3.2 0.00 1.32 1.32 72 1012.6
20260507034957 8 52 3.2 4.8 0.00 1.32 1.32 72 1012.5
20260507034454 8 27 3.2 4.8 0.00 1.32 1.32 71 1012.5
20260507033952 8 23 3.2 4.8 0.00 1.32 1.32 72 1012.5
20260507033449 8 35 3.2 4.8 0.00 1.32 1.32 72 1012.5
20260507032946 8 49 1.6 3.2 0.00 1.32 1.32 72 1012.5
20260507032443 8 35 1.6 4.8 0.00 1.32 1.32 72 1012.3
20260507031939 8 36 1.6 3.2 0.00 1.32 1.32 72 1012.5
20260507031436 8 38 1.6 4.8 0.00 1.32 1.32 72 1012.2
20260507030933 8 40 3.2 4.8 0.00 1.32 1.32 71 1012.4
20260507030430 8 48 1.6 4.8 0.00 1.32 1.32 71 1012.5
20260507025927 8 49 1.6 4.8 0.00 1.32 1.32 71 1012.5
20260507025424 8 49 3.2 4.8 0.00 1.32 1.32 70 1012.5
20260507024922 8 68 3.2 4.8 0.00 1.32 1.32 71 1012.3
20260507024419 8 54 3.2 4.8 0.00 1.32 1.32 70 1012.2
20260507023915 8 58 3.2 4.8 0.00 1.32 1.32 71 1012.3
20260507023412 8 70 3.2 4.8 0.00 1.32 1.32 71 1012.1
20260507022909 8 56 3.2 4.8 0.00 1.32 1.32 71 1012.5
20260507022406 8 55 3.2 4.8 0.00 1.32 1.32 71 1012.1
20260507021902 8 53 3.2 4.8 0.00 1.32 1.32 71 1012.0
20260507021357 8 60 3.2 4.8 0.00 1.32 1.32 70 1012.0
20260507020855 8 51 3.2 4.8 0.00 1.32 1.32 70 1011.9
20260507020351 8 45 3.2 4.8 0.00 1.32 1.32 70 1011.8
20260507015848 8 29 3.2 4.8 0.00 1.32 1.32 69 1011.9
20260507015347 8 45 1.6 4.8 0.00 1.32 1.32 70 1011.7
20260507014844 8 52 3.2 4.8 0.00 1.32 1.32 69 1011.6
20260507014339 8 49 1.6 3.2 0.00 1.32 1.32 70 1011.7
20260507013836 8 74 0.0 4.8 0.00 1.32 1.32 68 1011.6
20260507013333 9 43 4.8 4.8 0.00 1.32 1.32 68 1011.4